星链-30930 (STARLINK-30930 )

导读

STARLINK-30930是美国SpaceX公司星链星座的卫星,于2023年11月20日发射。星链旨在构建全球低轨宽带互联网星座,该卫星采用平板设计,搭载氪工质霍尔推进器,配备Ku/Ka波段通信载荷与光学星间链路,支持高速网络传输,设计寿命约5-7年,退役后会主动离轨再入大气层焚毁,助力星链实现全球覆盖服务。

Basic Information
目录编号:
58385
目录名称:
STARLINK-30930
国际标识:
2023-178M
轨道中心:
EARTH
卫星名称:
星链-30930
卫星全名:
星链-30930 (STARLINK-30930 )
卫星状态:
在轨 (已飞行941 天)
发射日期:
2023-11-20 UTC
国别 :
美国 (US)
星等 :
--
Orbit Information
数据来源 国际轨道数据 AOE轨道数据
星历时间 2026-06-17T20:41:07+0800
21小时前
查看轨道信息
2026-06-15T06:00:00+0800
3天前
查看轨道信息
半长轴 6840.867km 6840.849km
偏心率 0.0000858 0.0002048
轨道倾角 53.160° 53.155°
近地点辐角 92.895° 102.822°
升交点赤经 255.463° 267.676°
平近点角 267.215° 221.694°
近地点 462.143km 461.31km
远地点 463.317km 464.114km
周期 93.848分钟 93.848分钟
每日圈数 15.343912 15.343972
Detailed Information
固有亮度:
5
最大亮度:
0.3
卫星平台:
Starlink v2.0 mini
覆盖范围:
全球
运营商:
太空探索技术公司
运营商所在国:
美国
制造商(研发单位):
太空探索技术公司
制造商所在国:
美国
使用方式:
暂无
Satellite Introduction
星链(Starlink)计划是由太空探索技术公司(SpaceX)提出的一个巨型低轨卫星互联网星座项目,计划在2019年至2024年间在太空搭建由约1.2万颗卫星组成的“星链”网络,其中1584颗将部署在地球上空550千米处的近地轨道,并从2020年开始工作。该卫星仍在工作。
2D Orbit Map
3D Orbit Map
Orbit Altitude Analysis Chart
Orbit Inclination Analysis Chart
Orbit Comprehensive Analysis Chart
View Comprehensive Chart